Location: Gwatt
(46.7204°N, 7.6223°E)
Time: 01:10:04
(UTC+00:00)

Vanguard 3 - Pass Details

Date: 29 January 2021
Orbit: 508 x 3262 km, 33.4° (Epoch: 03 March)

Event Time Altitude Azimuth Distance (km) Brightness Sun altitude
Exits shadow 04:39:25 23° 220° (SW) 2,337 9.1 -23.6°
Maximum altitude 04:42:44 31° 182° (S) 2,319 9.4 -23.1°
Drops below altitude 10° 04:52:34 10° 127° (SE) 4,644 11.8 -21.4°
Sets 04:57:46 0° 119° (ESE) 6,127 12.8 -20.5°
